GW6554 Weather Reports


time (UTC)temp
C
wind
direction
speed
KPH
gust
KPH
rain 1hr
cm
rain 24hr
cm
rain mn
cm
humidity
%
barometer
mb
20260906231026 36 71 0.0 1.6 0.00 0.00 0.00 43 1008.2
20260906230525 36 76 3.2 4.8 0.00 0.00 0.00 42 1008.1
20260906230025 36 86 1.6 1.6 0.00 0.00 0.00 42 1008.3
20260906225519 36 108 3.2 4.8 0.00 0.00 0.00 42 1008.5
20260906225015 37 354 0.0 1.6 0.00 0.00 0.00 39 1008.5
20260906224510 37 50 1.6 3.2 0.00 0.00 0.00 40 1008.5
20260906224007 37 34 0.0 1.6 0.00 0.00 0.00 40 1008.5
20260906223502 36 1 1.6 1.6 0.00 0.00 0.00 41 1008.5
20260906223000 36 70 3.2 4.8 0.00 0.00 0.00 40 1008.5
20260906222455 37 39 1.6 3.2 0.00 0.00 0.00 40 1008.5
20260906221953 37 84 1.6 1.6 0.00 0.00 0.00 40 1008.5
20260906221452 37 83 4.8 4.8 0.00 0.00 0.00 38 1008.5
20260906220948 37 61 0.0 1.6 0.00 0.00 0.00 40 1008.6
20260906220443 37 40 4.8 4.8 0.00 0.00 0.00 39 1008.6
20260906215943 37 104 1.6 3.2 0.00 0.00 0.00 40 1008.4
20260906215443 37 22 1.6 1.6 0.00 0.00 0.00 41 1008.3
20260906214940 37 13 1.6 1.6 0.00 0.00 0.00 41 1008.2
20260906214440 37 170 3.2 8.0 0.00 0.00 0.00 40 1008.4
20260906213939 37 219 4.8 4.8 0.00 0.00 0.00 40 1008.4
20260906213434 37 173 3.2 4.8 0.00 0.00 0.00 40 1008.5
20260906212932 38 190 4.8 8.0 0.00 0.00 0.00 39 1008.7
20260906212427 38 41 0.0 1.6 0.00 0.00 0.00 40 1008.7
20260906211927 38 3 1.6 1.6 0.00 0.00 0.00 38 1008.7
20260906211422 38 313 3.2 3.2 0.00 0.00 0.00 38 1008.8
20260906210916 37 12 1.6 1.6 0.00 0.00 0.00 39 1009.0
20260906210413 37 311 4.8 4.8 0.00 0.00 0.00 39 1008.9
20260906205907 37 88 1.6 3.2 0.00 0.00 0.00 40 1009.1
20260906205403 37 49 3.2 4.8 0.00 0.00 0.00 40 1008.9
20260906204858 37 238 1.6 1.6 0.00 0.00 0.00 39 1009.2
20260906204357 37 59 1.6 3.2 0.00 0.00 0.00 40 1009.3
20260906203857 38 102 4.8 8.0 0.00 0.00 0.00 40 1009.4
20260906203352 37 5 1.6 3.2 0.00 0.00 0.00 39 1009.4
20260906202850 37 29 0.0 1.6 0.00 0.00 0.00 42 1009.5
20260906202349 37 8 3.2 3.2 0.00 0.00 0.00 41 1009.5
20260906201849 36 139 4.8 8.0 0.00 0.00 0.00 42 1009.5
20260906201344 35 86 1.6 1.6 0.00 0.00 0.00 45 1009.5
20260906200840 36 30 3.2 3.2 0.00 0.00 0.00 45 1009.5
20260906200336 37 115 4.8 8.0 0.00 0.00 0.00 42 1009.8
20260906195836 37 2 3.2 4.8 0.00 0.00 0.00 42 1009.5
20260906195332 36 210 3.2 3.2 0.00 0.00 0.00 43 1009.9
20260906194828 35 46 3.2 3.2 0.00 0.00 0.00 45 1009.5
20260906194323 36 25 0.0 1.6 0.00 0.00 0.00 45 1009.7
20260906193818 36 50 3.2 3.2 0.00 0.00 0.00 45 1009.9
20260906193313 37 46 4.8 4.8 0.00 0.00 0.00 43 1009.7
20260906192804 37 89 1.6 1.6 0.00 0.00 0.00 43 1009.9
20260906192306 36 105 4.8 8.0 0.00 0.00 0.00 43 1009.8
20260906191802 37 56 1.6 3.2 0.00 0.00 0.00 45 1010.0
20260906191258 36 57 6.4 9.7 0.00 0.00 0.00 44 1010.2
20260906190757 36 68 4.8 8.0 0.00 0.00 0.00 44 1010.2
20260906190251 36 98 3.2 4.8 0.00 0.00 0.00 45 1010.2
20260906185751 36 52 3.2 4.8 0.00 0.00 0.00 46 1010.3
20260906185250 35 72 6.4 11.3 0.00 0.00 0.00 46 1010.3
20260906184745 35 313 1.6 3.2 0.00 0.00 0.00 47 1010.4
20260906184240 35 50 4.8 8.0 0.00 0.00 0.00 48 1010.4
20260906183735 36 159 1.6 3.2 0.00 0.00 0.00 47 1010.6
20260906183232 36 137 4.8 8.0 0.00 0.00 0.00 47 1010.7
20260906182731 36 200 3.2 4.8 0.00 0.00 0.00 48 1010.5
20260906182228 36 203 6.4 8.0 0.00 0.00 0.00 47 1010.7
20260906181722 35 4 1.6 1.6 0.00 0.00 0.00 47 1010.6
20260906181219 36 88 4.8 4.8 0.00 0.00 0.00 48 1010.9
20260906180719 35 196 4.8 4.8 0.00 0.00 0.00 48 1010.7
20260906180214 36 55 3.2 3.2 0.00 0.00 0.00 48 1010.9
20260906175712 35 33 3.2 3.2 0.00 0.00 0.00 49 1010.8
20260906175208 36 243 6.4 8.0 0.00 0.00 0.00 48 1010.9
20260906174706 36 56 3.2 3.2 0.00 0.00 0.00 47 1010.9
20260906174200 35 351 1.6 3.2 0.00 0.00 0.00 48 1011.0
20260906173656 36 34 1.6 1.6 0.00 0.00 0.00 47 1011.1
20260906173151 35 95 4.8 8.0 0.00 0.00 0.00 50 1011.1
20260906172650 35 184 3.2 8.0 0.00 0.00 0.00 48 1011.4
20260906172146 35 89 4.8 9.7 0.00 0.00 0.00 50 1011.1
20260906171646 35 204 3.2 3.2 0.00 0.00 0.00 48 1011.2
20260906171141 35 243 3.2 8.0 0.00 0.00 0.00 50 1011.1
20260906170637 34 93 1.6 3.2 0.00 0.00 0.00 50 1011.3
20260906170137 35 27 8.0 11.3 0.00 0.00 0.00 50 1011.3
20260906165633 35 23 1.6 1.6 0.00 0.00 0.00 52 1011.0
20260906165129 35 79 8.0 11.3 0.00 0.00 0.00 52 1011.2
20260906164627 35 96 3.2 4.8 0.00 0.00 0.00 50 1011.1
20260906164123 34 71 1.6 3.2 0.00 0.00 0.00 53 1011.3
20260906163619 33 54 1.6 3.2 0.00 0.00 0.00 55 1011.3
20260906163114 34 66 1.6 1.6 0.00 0.00 0.00 53 1011.2
20260906162611 33 27 0.0 0.0 0.00 0.00 0.00 56 1011.1
20260906162106 33 164 3.2 3.2 0.00 0.00 0.00 58 1011.3
20260906161601 33 212 4.8 8.0 0.00 0.00 0.00 57 1011.2
20260906161059 33 66 1.6 1.6 0.00 0.00 0.00 57 1010.9
20260906160559 33 85 3.2 3.2 0.00 0.00 0.00 56 1010.9
20260906160057 33 55 1.6 1.6 0.00 0.00 0.00 57 1011.1
20260906155555 32 56 0.0 0.0 0.00 0.00 0.00 60 1010.9
20260906155052 33 55 1.6 3.2 0.00 0.00 0.00 60 1011.1
20260906154547 32 59 1.6 1.6 0.00 0.00 0.00 62 1011.1
20260906154045 32 40 1.6 3.2 0.00 0.00 0.00 62 1010.9
20260906153544 32 47 0.0 0.0 0.00 0.00 0.00 64 1011.0
20260906153040 32 64 6.4 11.3 0.00 0.00 0.00 65 1010.8
20260906152539 32 80 3.2 4.8 0.00 0.00 0.00 65 1010.7
20260906152038 32 50 6.4 8.0 0.00 0.00 0.00 65 1010.7
20260906151534 31 229 4.8 4.8 0.00 0.00 0.00 67 1010.9
20260906151030 31 70 3.2 4.8 0.00 0.00 0.00 68 1010.7
20260906150525 31 80 4.8 4.8 0.00 0.00 0.00 68 1010.6
20260906150020 31 52 0.0 1.6 0.00 0.00 0.00 70 1010.7
20260906145519 30 97 3.2 4.8 0.00 0.00 0.00 71 1010.5
20260906145014 30 15 1.6 1.6 0.00 0.00 0.00 71 1010.6
20260906144508 30 102 4.8 8.0 0.00 0.00 0.00 70 1010.7
20260906144004 30 70 0.0 0.0 0.00 0.00 0.00 71 1010.7
20260906143459 30 52 0.0 0.0 0.00 0.00 0.00 72 1010.7
20260906142955 30 45 0.0 0.0 0.00 0.00 0.00 73 1010.8
20260906142454 30 41 1.6 3.2 0.00 0.00 0.00 73 1010.6
20260906141950 30 28 0.0 1.6 0.00 0.00 0.00 74 1010.8
20260906141449 30 51 0.0 0.0 0.00 0.00 0.00 74 1010.7
20260906140944 30 37 0.0 1.6 0.00 0.00 0.00 75 1010.8
20260906140439 29 67 0.0 0.0 0.00 0.00 0.00 76 1010.6
20260906135937 28 50 1.6 1.6 0.00 0.00 0.00 76 1010.5
20260906135436 28 80 3.2 3.2 0.00 0.00 0.00 76 1010.5
20260906134931 28 50 0.0 0.0 0.00 0.00 0.00 78 1010.5
20260906134427 28 61 0.0 0.0 0.00 0.00 0.00 80 1010.6
20260906133921 28 51 0.0 0.0 0.00 0.00 0.00 80 1010.5
20260906133417 28 50 1.6 1.6 0.00 0.00 0.00 80 1010.7
20260906132913 28 59 0.0 0.0 0.00 0.00 0.00 80 1010.5
20260906132408 28 60 1.6 1.6 0.00 0.00 0.00 81 1010.8
20260906131903 27 57 0.0 0.0 0.00 0.00 0.00 82 1010.8
20260906131359 27 56 0.0 0.0 0.00 0.00 0.00 84 1010.9
20260906130855 26 56 0.0 0.0 0.00 0.00 0.00 87 1010.8
20260906130354 26 54 0.0 0.0 0.00 0.00 0.00 88 1010.6
20260906125853 25 52 0.0 0.0 0.00 0.00 0.00 89 1010.5
20260906125350 25 51 0.0 0.0 0.00 0.00 0.00 90 1010.7
20260906124845 25 56 0.0 0.0 0.00 0.00 0.00 91 1010.5
20260906124341 25 70 0.0 0.0 0.00 0.00 0.00 91 1010.6
20260906123840 25 70 0.0 0.0 0.00 0.00 0.00 91 1010.5
20260906123335 25 70 0.0 0.0 0.00 0.00 0.00 92 1010.4
20260906122835 25 70 0.0 0.0 0.00 0.00 0.00 92 1010.3
20260906122330 25 69 0.0 0.0 0.00 0.00 0.00 92 1010.4
20260906121827 25 69 0.0 0.0 0.00 0.00 0.00 92 1010.2
20260906121322 25 69 0.0 0.0 0.00 0.00 0.00 91 1010.3
20260906120818 25 69 0.0 0.0 0.00 0.00 0.00 91 1009.9
20260906120314 25 69 0.0 0.0 0.00 0.00 0.00 91 1009.9
20260906115810 25 69 0.0 0.0 0.00 0.00 0.00 91 1009.8
20260906115306 25 69 0.0 0.0 0.00 0.00 0.00 91 1010.0
20260906114804 25 69 0.0 0.0 0.00 0.00 0.00 91 1010.0
20260906114300 25 69 0.0 0.0 0.00 0.00 0.00 91 1010.1
20260906113755 25 69 0.0 0.0 0.00 0.00 0.00 90 1009.8
20260906113254 25 69 0.0 0.0 0.00 0.00 0.00 90 1009.8
20260906112755 25 69 0.0 0.0 0.00 0.00 0.00 90 1009.7
20260906112251 25 69 0.0 0.0 0.00 0.00 0.00 90 1009.9
20260906111750 25 69 0.0 0.0 0.00 0.00 0.00 90 1009.3
20260906111249 25 69 0.0 0.0 0.00 0.00 0.00 89 1009.4
20260906110745 25 69 0.0 0.0 0.00 0.00 0.00 89 1009.7
20260906110241 25 69 0.0 0.0 0.00 0.00 0.00 89 1009.8
20260906105740 25 70 0.0 0.0 0.00 0.00 0.00 89 1009.4
20260906105236 25 70 0.0 0.0 0.00 0.00 0.00 89 1009.5
20260906104731 25 70 0.0 0.0 0.00 0.00 0.00 89 1009.3
20260906104230 25 70 0.0 0.0 0.00 0.00 0.00 89 1009.7
20260906103727 25 70 0.0 0.0 0.00 0.00 0.00 88 1009.7
20260906103222 25 70 0.0 0.0 0.00 0.00 0.00 88 1009.7
20260906102718 25 70 0.0 0.0 0.00 0.00 0.00 88 1009.7
20260906102217 25 70 0.0 0.0 0.00 0.00 0.00 88 1009.4
20260906101712 25 70 0.0 0.0 0.00 0.00 0.00 88 1009.4
20260906101207 25 70 0.0 0.0 0.00 0.00 0.00 87 1009.4
20260906100703 25 70 0.0 0.0 0.00 0.00 0.00 87 1009.3
20260906100202 25 70 0.0 0.0 0.00 0.00 0.00 87 1009.4
20260906095657 25 70 0.0 0.0 0.00 0.00 0.00 87 1009.2
20260906095153 25 70 0.0 0.0 0.00 0.00 0.00 87 1009.2
20260906094651 25 70 0.0 0.0 0.00 0.00 0.00 86 1009.0
20260906094147 26 70 0.0 0.0 0.00 0.00 0.00 86 1009.0
20260906093643 26 70 0.0 0.0 0.00 0.00 0.00 85 1009.1
20260906093144 26 70 0.0 0.0 0.00 0.00 0.00 85 1008.8
20260906092638 26 70 0.0 0.0 0.00 0.00 0.00 85 1008.6
20260906092132 26 70 0.0 0.0 0.00 0.00 0.00 84 1008.9
20260906091629 26 71 0.0 0.0 0.00 0.00 0.00 84 1008.9
20260906091125 26 71 0.0 0.0 0.00 0.00 0.00 84 1008.8
20260906090621 26 72 0.0 0.0 0.00 0.00 0.00 83 1008.9
20260906090120 26 129 1.6 1.6 0.00 0.00 0.00 83 1008.7
20260906085619 26 198 0.0 1.6 0.00 0.00 0.00 83 1008.9
20260906085114 26 73 0.0 0.0 0.00 0.00 0.00 83 1008.7
20260906084608 26 83 0.0 0.0 0.00 0.00 0.00 83 1008.7
20260906084107 26 189 0.0 1.6 0.00 0.00 0.00 82 1008.6
20260906083603 26 212 3.2 3.2 0.00 0.00 0.00 82 1008.6
20260906083103 27 190 1.6 1.6 0.00 0.00 0.00 82 1008.6
20260906082558 27 140 1.6 1.6 0.00 0.00 0.00 82 1008.6
20260906082054 27 83 0.0 0.0 0.00 0.00 0.00 81 1008.6
20260906081549 27 158 0.0 0.0 0.00 0.00 0.00 81 1008.5
20260906081044 27 194 0.0 0.0 0.00 0.00 0.00 81 1008.5
20260906080542 27 175 1.6 1.6 0.00 0.00 0.00 81 1008.6
20260906080038 27 182 0.0 0.0 0.00 0.00 0.00 80 1009.0
20260906075537 27 193 1.6 3.2 0.00 0.00 0.00 80 1009.0
20260906075032 27 79 0.0 0.0 0.00 0.00 0.00 80 1008.8
20260906074527 27 122 0.0 0.0 0.00 0.00 0.00 79 1009.0
20260906074025 27 132 0.0 0.0 0.00 0.00 0.00 79 1009.0
20260906073520 27 132 0.0 0.0 0.00 0.00 0.00 78 1008.8
20260906073016 27 134 0.0 1.6 0.00 0.00 0.00 78 1008.8
20260906072511 27 183 0.0 0.0 0.00 0.00 0.00 78 1008.8
20260906072007 27 295 0.0 0.0 0.00 0.00 0.00 78 1008.8
20260906071503 27 228 0.0 0.0 0.00 0.00 0.00 78 1008.9
20260906070958 27 208 1.6 1.6 0.00 0.00 0.00 78 1009.0
20260906070455 27 202 3.2 3.2 0.00 0.00 0.00 77 1009.0
20260906065950 27 233 0.0 1.6 0.00 0.00 0.00 77 1009.0
20260906065449 27 181 4.8 4.8 0.00 0.00 0.00 77 1009.0
20260906064945 28 207 3.2 3.2 0.00 0.00 0.00 76 1009.2
20260906064441 28 164 1.6 1.6 0.00 0.00 0.00 75 1009.0
20260906063935 28 238 1.6 3.2 0.00 0.00 0.00 75 1009.1
20260906063431 28 186 0.0 0.0 0.00 0.00 0.00 74 1009.3
20260906062926 28 181 0.0 0.0 0.00 0.00 0.00 73 1009.0
20260906062426 28 192 3.2 3.2 0.00 0.00 0.00 73 1009.1
20260906061921 28 226 1.6 3.2 0.00 0.00 0.00 73 1009.5
20260906061418 28 183 1.6 1.6 0.00 0.00 0.00 72 1009.3
20260906060911 28 182 0.0 1.6 0.00 0.00 0.00 72 1009.3
20260906060409 28 103 0.0 0.0 0.00 0.00 0.00 71 1009.2
20260906055905 28 104 1.6 1.6 0.00 0.00 0.00 71 1009.2
20260906055400 28 222 1.6 3.2 0.00 0.00 0.00 70 1009.4
20260906054855 28 216 0.0 1.6 0.00 0.00 0.00 70 1009.2
20260906054350 28 106 0.0 1.6 0.00 0.00 0.00 69 1009.3
20260906053847 28 173 0.0 1.6 0.00 0.00 0.00 69 1009.4
20260906053342 28 181 1.6 3.2 0.00 0.00 0.00 69 1009.5
20260906052838 28 76 0.0 0.0 0.00 0.00 0.00 68 1009.3
20260906052334 28 102 0.0 0.0 0.00 0.00 0.00 68 1009.4
20260906051831 28 193 3.2 3.2 0.00 0.00 0.00 68 1009.2
20260906051330 28 226 1.6 1.6 0.00 0.00 0.00 67 1009.4
20260906050826 29 213 3.2 3.2 0.00 0.00 0.00 67 1009.3
20260906050321 29 177 1.6 1.6 0.00 0.00 0.00 67 1009.3
20260906045819 29 157 0.0 1.6 0.00 0.00 0.00 67 1009.5
20260906045314 29 175 0.0 0.0 0.00 0.00 0.00 68 1009.7
20260906044811 29 182 1.6 1.6 0.00 0.00 0.00 67 1009.8
20260906044305 29 158 1.6 1.6 0.00 0.00 0.00 67 1009.8
20260906043801 29 143 3.2 4.8 0.00 0.00 0.00 67 1009.8
20260906043257 29 158 4.8 8.0 0.00 0.00 0.00 67 1009.8
20260906042756 30 179 1.6 3.2 0.00 0.00 0.00 67 1010.0
20260906042256 30 182 1.6 3.2 0.00 0.00 0.00 67 1009.9
20260906041751 30 121 1.6 1.6 0.00 0.00 0.00 67 1010.0
20260906041246 30 86 0.0 1.6 0.00 0.00 0.00 67 1010.1
20260906040742 30 165 1.6 1.6 0.00 0.00 0.00 67 1010.0
20260906040237 30 165 1.6 1.6 0.00 0.00 0.00 67 1010.1
20260906035732 30 197 1.6 1.6 0.00 0.00 0.00 67 1009.9
20260906035228 30 223 3.2 4.8 0.00 0.00 0.00 66 1010.0
20260906034727 30 118 0.0 0.0 0.00 0.00 0.00 66 1010.3
20260906034223 30 224 3.2 3.2 0.00 0.00 0.00 66 1010.1
20260906033718 30 159 1.6 1.6 0.00 0.00 0.00 66 1010.2
20260906033218 30 194 1.6 3.2 0.00 0.00 0.00 66 1010.0
20260906032715 30 59 0.0 0.0 0.00 0.00 0.00 66 1009.8
20260906032215 30 143 1.6 1.6 0.00 0.00 0.00 65 1010.1
20260906031710 30 113 0.0 0.0 0.00 0.00 0.00 65 1010.1
20260906031206 30 216 1.6 3.2 0.00 0.00 0.00 65 1010.2
20260906030705 30 177 3.2 3.2 0.00 0.00 0.00 64 1010.1
20260906030201 30 207 3.2 3.2 0.00 0.00 0.00 64 1010.1
20260906025700 30 91 0.0 1.6 0.00 0.00 0.00 63 1010.4
20260906025200 30 80 0.0 1.6 0.00 0.00 0.00 63 1010.4
20260906024654 30 68 0.0 1.6 0.00 0.00 0.00 63 1010.4
20260906024153 30 67 0.0 1.6 0.00 0.00 0.00 62 1010.2
20260906023649 30 117 0.0 0.0 0.00 0.00 0.00 62 1010.1
20260906023149 30 207 3.2 4.8 0.00 0.00 0.00 62 1009.9
20260906022644 30 174 1.6 1.6 0.00 0.00 0.00 62 1009.9
20260906022140 30 219 3.2 3.2 0.00 0.00 0.00 62 1009.9
20260906021636 30 59 0.0 0.0 0.00 0.00 0.00 62 1009.7
20260906021135 30 150 1.6 1.6 0.00 0.00 0.00 62 1009.7
20260906020635 31 90 1.6 1.6 0.00 0.00 0.00 61 1009.5
20260906020129 31 105 1.6 1.6 0.00 0.00 0.00 61 1009.4
20260906015624 31 199 1.6 3.2 0.00 0.00 0.00 61 1009.4
20260906015122 31 226 4.8 4.8 0.00 0.00 0.00 60 1009.4
20260906014617 31 196 3.2 4.8 0.00 0.00 0.00 60 1009.5
20260906014114 31 85 1.6 1.6 0.00 0.00 0.00 60 1009.2
20260906013609 31 189 4.8 8.0 0.00 0.00 0.00 60 1009.2
20260906013104 31 256 3.2 4.8 0.00 0.00 0.00 59 1009.1
20260906012559 31 223 4.8 4.8 0.00 0.00 0.00 59 1009.1
20260906012059 32 187 1.6 3.2 0.00 0.00 0.00 57 1009.1
20260906011555 32 168 1.6 3.2 0.00 0.00 0.00 56 1008.8
20260906011054 32 78 4.8 8.0 0.00 0.00 0.00 54 1008.7
20260906010550 33 51 1.6 3.2 0.00 0.00 0.00 54 1008.7
20260906010046 33 221 4.8 8.0 0.00 0.00 0.00 52 1008.7
20260906005545 33 132 1.6 3.2 0.00 0.00 0.00 52 1008.5
20260906005044 34 169 6.4 9.7 0.00 0.00 0.00 51 1008.6
20260906004544 34 245 3.2 4.8 0.00 0.00 0.00 49 1008.3
20260906004039 35 71 3.2 3.2 0.00 0.00 0.00 48 1008.4
20260906003534 35 53 0.0 0.0 0.00 0.00 0.00 46 1008.4
20260906003030 35 23 0.0 0.0 0.00 0.00 0.00 45 1008.3
20260906002524 35 73 1.6 3.2 0.00 0.00 0.00 45 1008.5
20260906002019 35 57 0.0 0.0 0.00 0.00 0.00 44 1008.4
20260906001516 35 64 0.0 1.6 0.00 0.00 0.00 44 1008.4
20260906001015 35 48 1.6 1.6 0.00 0.00 0.00 43 1008.5
20260906000512 35 72 1.6 1.6 0.00 0.00 0.00 43 1008.4
20260906000012 35 88 1.6 4.8 0.00 0.00 0.00 43 1008.4
20260905235505 35 68 0.0 1.6 0.00 0.00 0.00 42 1008.3
20260905235000 36 38 1.6 1.6 0.00 0.00 0.00 42 1008.1
20260905234456 36 99 1.6 1.6 0.00 0.00 0.00 42 1007.9
20260905233955 36 28 1.6 1.6 0.00 0.00 0.00 42 1008.0
20260905233452 36 92 3.2 3.2 0.00 0.00 0.00 42 1008.2
20260905232950 36 55 3.2 4.8 0.00 0.00 0.00 43 1007.9
20260905232447 35 47 0.0 0.0 0.00 0.00 0.00 43 1008.2
20260905231942 36 63 0.0 1.6 0.00 0.00 0.00 42 1008.1
20260905231438 36 34 1.6 1.6 0.00 0.00 0.00 42 1008.1